Location: Unspecified
(0.0000°N, 0.0000°E)
Time: 05:42:10
(UTC+00:00)

Gonets-D1 - Visible Passes

Search period start: 08 June 2023 00:00
Search period end: 18 June 2023 00:00
Orbit: 1407 x 1416 km, 82.6° (Epoch: 07 June)

Date Brightness Start Highest point End Pass type
(mag) Time Alt. Az. Time Alt. Az. Time Alt. Az.
08 Jun 8.8 02:11:13 25° E 02:11:13 25° E 02:16:34 10° NE visible
08 Jun 7.8 04:05:23 37° WNW 04:05:23 37° WNW 04:12:05 10° NNW visible
09 Jun 7.7 02:55:17 56° NE 02:55:17 56° NE 03:01:50 10° NNE visible
09 Jun 8.8 04:49:27 12° WNW 04:49:27 12° WNW 04:51:15 10° WNW visible
10 Jun 9.3 01:45:09 17° ENE 01:45:09 17° ENE 01:47:58 10° NE visible
10 Jun 7.8 03:39:18 41° NW 03:39:18 41° NW 03:45:05 10° NNW visible
11 Jun 8.3 02:29:08 37° NE 02:29:08 37° NE 02:34:06 10° NNE visible
11 Jun 8.7 04:23:17 16° WNW 04:23:17 16° WNW 04:25:53 10° NW visible
12 Jun 8.0 03:13:04 38° NNW 03:13:04 38° NNW 03:17:54 10° N visible
13 Jun 8.9 02:02:50 25° NE 02:02:50 25° NE 02:06:13 10° NNE visible
13 Jun 8.7 03:56:58 18° NW 03:56:58 18° NW 03:59:38 10° NW visible
14 Jun 8.4 02:46:42 32° N 02:46:42 32° N 02:50:33 10° N visible
15 Jun 9.3 01:36:23 16° NE 01:36:23 16° NE 01:38:07 10° NE visible
15 Jun 8.8 03:30:32 19° NW 03:30:32 19° NW 03:32:59 10° NNW visible
16 Jun 8.8 02:20:12 25° N 02:20:12 25° N 02:23:03 10° N visible
17 Jun 8.9 03:03:58 19° NNW 03:03:58 19° NNW 03:06:04 10° NNW visible
